Home   Weather   Trinidad   Past weeks
Flag for Cuba

Past Weather in Trinidad, Cuba — Yesterday and Last 2 Weeks

Now
86 °F

Warm.


Feels Like: 91 °F
Forecast: N/A
Wind: 9 mph from Southwest

Location: Cienfuegos - Las Villas

Current Time: May 19, 2019 at 7:00:23 pm

Latest Report: May 19, 2019 at 5:59 pm


Visibility: N/A

Pressure: 29.89 "Hg

Humidity: 59%

Dew Point: 70 °F

Location of TrinidadLocation

Past Weather in Trinidad — Graph

°F

Trinidad Temperature Yesterday

Maximum temperature yesterday: 88 °F (at 11:50 am)
Minimum temperature yesterday: 70 °F (at 4:59 am)
Average temperature yesterday: 76 °F

High & Low Weather Summary for the Past Weeks

 TemperatureHumidityPressure
High95 °F (May 7, 1:51 pm)100% (May 8, 6:59 am)30.04 "Hg (May 8, 6:59 am)
Low66 °F (May 19, 6:59 am)41% (May 7, 1:51 pm)29.89 "Hg (May 5, 3:50 pm)
Average81 °F78%29.96 "Hg
* Reported May 4 5:51 pm — May 19 5:59 pm, Trinidad. Weather by CustomWeather, © 2019

Note: Actual official high and low records may vary slightly from our data, if they occured in-between our weather recording intervals... More about our weather records

Advertising

Trinidad Weather History for the Previous 24 Hours

Scroll right to see more
 ConditionsComfort  
Time TempWeatherWind HumidityBarometerVisibility
5:59 pm
Sun, May 19
86 °FWarm.9 mph59%29.89 "HgN/A
4:59 pm88 °FWarm.12 mph59%29.92 "HgN/A
3:50 pm88 °FScattered clouds.9 mph59%29.92 "HgN/A
2:50 pm88 °FScattered clouds.10 mph59%29.95 "HgN/A
1:50 pm88 °FPassing clouds.7 mph59%29.98 "HgN/A
12:50 pm90 °FPassing clouds.8 mph49%29.98 "HgN/A
11:55 am88 °FPassing clouds.9 mph55%29.98 "HgN/A
10:54 am84 °FPassing clouds.7 mph70%29.98 "HgN/A
9:50 am81 °FSunny.2 mph74%29.98 "Hg10 mi
8:51 am75 °FPassing clouds.3 mph83%29.98 "HgN/A
7:59 am72 °FMild.3 mph94%29.98 "HgN/A
6:59 am66 °FMild.2 mph100%29.98 "HgN/A
5:59 am68 °FMild.3 mph94%29.95 "HgN/A
4:59 am68 °FMild.6 mph94%29.95 "HgN/A
3:59 am68 °FMild.3 mph100%29.95 "HgN/A
2:59 am70 °FMild.3 mph94%29.95 "HgN/A
1:59 am70 °FMild.5 mph100%29.98 "HgN/A
12:58 am70 °FMild.3 mph100%29.98 "HgN/A
11:59 pm
Sat, May 18
72 °FMild.2 mph94%29.98 "HgN/A
10:59 pm72 °FMild.1 mph94%30.01 "HgN/A
9:59 pm72 °FMild.3 mph94%29.98 "HgN/A
8:59 pm72 °FMild.2 mph94%29.98 "HgN/A
7:58 pm70 °FMild.7 mph100%29.98 "HgN/A
Weather by CustomWeather, © 2019

See weather overview